Wind_Speed
23 22 17 20 14 17 15 17 17 27 32 31 27 28 24 24 30 29 31 32 32 34 35 36 36 34 33 29 26 29 31 30 27 25 24 25 28 32
24 20 20 22 15 17 20 20 22 26 34 28 30 30 28 28 28 33 35 36 39 38 36 35 32 33 32 31 28 28 29 29 28 25 22 22 20 22
21 20 13 13 14 16 19 23 24 23 29 31 29 28 28 31 33 39 36 36 35 32 30 32 30 32 31 28 29 28 29 29 27 24 22 19 24 20
13 11 13 11 15 19 20 21 23 25 28 34 37 33 30 30 34 29 30 27 29 29 31 26 30 32 30 25 25 26 29 30 28 22 22 18 20 28
13 13 14 14 18 21 25 28 31 32 26 26 31 29 28 29 28 27 26 26 26 25 23 24 26 27 24 28 31 26 25 25 27 21 20 19 16 20
14 14 15 17 20 23 27 31 27 24 25 24 26 28 28 26 26 27 27 26 30 27 26 26 26 24 26 25 20 24 24 22 23 20 20 18 14 17
13 17 15 18 22 23 22 26 25 26 28 24 26 28 29 29 27 27 29 30 28 25 25 24 24 22 24 22 20 20 23 20 18 18 20 18 12 11
14 16 16 15 17 20 19 22 24 27 27 26 27 29 28 27 25 27 31 32 32 29 25 28 22 23 23 22 20 11 15 14 13 14 17 17 12 8
14 16 17 12 19 21 24 27 28 24 20 22 25 24 25 28 30 33 30 28 29 31 29 30 24 26 22 19 21 18 10 15 17 16 15 14 13 9
14 17 15 15 22 25 25 28 26 20 15 17 21 25 27 25 22 23 25 25 26 23 21 26 26 28 24 24 21 20 23 21 19 19 18 14 12 11
18 13 14 18 23 24 26 27 24 20 11 17 24 25 17 21 20 24 21 23 26 26 20 19 22 22 19 18 18 19 20 21 23 23 18 15 11 10
12 13 16 18 21 24 25 23 22 19 22 20 14 14 17 18 16 16 18 21 22 27 20 23 19 15 14 11 13 18 16 17 18 18 17 18 13 9
18 15 13 20 22 23 21 19 17 20 18 18 19 16 18 17 17 14 14 16 20 23 23 20 21 16 14 18 20 11 10 13 13 13 16 18 18 13
19 17 15 19 19 17 16 14 15 15 16 20 15 18 19 17 17 14 16 17 18 22 24 16 18 17 15 16 18 15 6 7 7 6 6 13 17 18
18 16 14 15 16 14 13 14 16 16 17 20 16 18 19 17 18 17 16 15 16 24 9 7 12 15 13 14 16 15 17 6 7 6 6 8 9 16
18 15 16 20 11 13 13 14 15 16 16 17 20 14 16 19 18 16 17 17 15 18 18 9 8 12 15 13 12 13 10 9 6 7 6 7 9 11
20 24 24 15 12 15 12 13 15 14 16 17 19 14 15 19 17 13 16 16 13 15 14 14 16 17 7 10 11 10 12 12 8 6 4 4 6 11
27 25 23 14 14 16 14 12 14 14 16 18 13 14 14 17 16 14 15 15 15 13 13 14 17 16 14 8 10 10 12 6 5 4 0 1 2 3
25 23 19 13 16 17 15 12 14 15 19 14 15 12 13 13 13 15 14 15 15 13 9 13 14 13 14 15 6 3 5 7 5 3 1 1 2 2
23 23 19 16 17 16 14 13 16 19 18 14 15 10 11 12 11 13 13 15 13 16 12 10 13 15 13 11 10 6 6 5 4 1 3 1 3 3
23 23 20 17 17 18 17 18 21 21 16 13 11 9 11 10 9 10 12 13 11 14 10 12 13 9 6 5 6 13 6 4 5 5 5 4 1 2
22 23 24 23 22 21 19 20 22 19 14 11 12 14 10 10 7 9 10 13 12 15 12 8 8 10 8 11 6 12 6 2 2 1 2 4 3 2
21 22 23 22 20 21 22 22 21 19 16 17 16 13 11 10 5 8 7 10 9 13 14 6 5 6 10 6 6 6 5 3 4 4 2 1 3 5
Wind_Direction
292 293 290 294 284 282 285 281 290 300 300 302 300 305 304 293 298 295 294 295 290 287 288 288 288 291 288 290 292 287 286 285 292 299 293 290 266 271
291 294 288 294 281 284 285 289 295 293 293 298 302 302 305 299 293 290 288 289 292 295 295 294 291 286 288 280 282 288 289 284 282 288 299 289 273 258
289 291 286 288 289 292 298 300 300 299 300 303 302 303 301 299 297 298 296 295 292 292 295 290 289 290 291 281 272 281 288 287 280 280 291 293 272 262
292 291 287 294 297 299 300 295 292 289 295 299 297 305 301 305 305 303 302 302 300 299 295 289 288 292 292 291 284 282 285 285 279 272 276 289 289 258
285 291 295 300 299 293 286 287 289 295 297 299 298 302 304 304 306 305 304 301 299 296 295 297 297 293 285 279 274 273 287 282 275 266 265 281 292 274
298 303 302 300 292 291 293 300 308 301 301 299 299 301 306 307 307 309 311 306 306 304 299 294 288 292 295 291 281 275 277 271 271 263 260 270 289 283
297 292 291 291 297 299 305 312 306 311 311 304 300 302 307 310 312 310 303 307 307 306 305 301 297 291 290 288 278 273 262 273 273 263 254 259 282 278
293 286 288 300 301 307 303 298 307 311 307 305 304 304 305 307 300 306 311 309 310 304 315 299 302 303 297 284 290 286 253 263 281 275 259 255 263 274
288 286 293 296 287 289 292 299 304 303 291 294 302 305 302 301 307 306 305 304 297 296 303 300 300 297 297 291 285 276 254 262 267 276 273 259 241 252
280 281 291 292 284 299 308 312 317 316 316 311 300 300 300 306 308 307 307 304 304 309 317 297 300 295 296 287 276 274 270 271 274 275 268 261 243 232
270 288 289 287 292 303 312 316 319 322 305 285 283 291 308 314 310 312 308 311 305 310 329 304 298 303 309 281 284 275 266 270 268 270 256 247 247 231
284 275 282 290 295 306 314 316 319 322 323 328 333 331 322 313 311 313 309 304 312 312 308 316 318 319 320 316 312 278 264 260 263 268 251 234 235 231
279 288 281 290 296 306 311 315 322 327 330 335 337 331 324 319 318 312 313 310 306 302 306 301 305 313 296 309 306 312 275 274 265 270 254 237 231 229
288 287 269 279 302 308 311 326 333 332 337 330 336 333 323 321 324 319 324 321 316 305 303 284 282 299 302 305 308 315 270 276 276 281 273 246 235 227
294 291 287 300 319 326 333 338 329 333 322 329 338 327 335 332 328 325 313 314 325 351 333 277 276 286 289 290 305 318 341 332 281 271 267 262 253 235
296 293 296 312 305 318 323 319 311 319 317 326 316 325 331 330 326 332 335 336 342 357 21 13 333 292 279 280 288 304 316 306 296 276 255 244 239 254
282 286 289 292 287 293 290 295 303 309 311 306 320 336 332 327 336 340 348 339 338 347 354 359 355 357 301 276 278 293 304 297 265 265 247 263 258 224
274 277 279 276 276 289 291 296 297 305 297 312 322 324 324 329 341 351 348 346 336 330 337 358 353 348 6 302 287 293 327 82 81 160 107 310 8 213
269 276 279 264 270 278 286 284 289 290 294 307 310 320 321 329 344 344 340 338 337 344 354 3 348 346 353 3 66 356 318 52 63 64 242 261 227 248
269 273 278 267 266 274 281 275 272 277 288 290 307 314 325 329 336 338 340 342 351 357 349 350 340 339 339 329 322 339 333 328 312 222 138 286 269 293
264 269 268 272 265 268 276 268 275 285 287 294 305 316 315 320 328 332 336 339 344 339 336 345 340 343 345 344 324 334 281 341 316 260 253 254 191 245
262 261 264 266 268 262 265 268 277 283 286 294 296 293 300 307 318 324 332 337 347 335 331 331 359 359 9 7 334 340 242 29 30 300 266 231 231 172
268 263 261 263 265 264 261 266 273 271 266 266 272 282 285 302 310 317 324 328 330 335 335 354 20 3 8 26 357 327 351 13 61 50 48 335 251 250
Height
1515 1513 1512 1510 1509 1507 1507 1506 1504 1499 1494 1495 1493 1493 1491 1488 1486 1483 1480 1476 1473 1471 1469 1467 1465 1463 1461 1460 1458 1456 1455 1454 1454 1452 1449 1447 1448 1446
1510 1509 1508 1506 1505 1504 1503 1502 1501 1499 1491 1491 1488 1486 1485 1481 1477 1474 1472 1468 1465 1463 1461 1459 1457 1455 1453 1452 1452 1451 1449 1448 1448 1447 1445 1444 1443 1441
1506 1503 1501 1502 1502 1501 1500 1498 1496 1494 1488 1482 1481 1479 1477 1473 1469 1467 1464 1461 1458 1456 1454 1452 1450 1447 1446 1445 1445 1444 1443 1442 1442 1442 1441 1439 1438 1436
1502 1502 1497 1497 1498 1497 1496 1492 1489 1486 1483 1476 1473 1472 1469 1466 1463 1460 1458 1456 1453 1450 1448 1445 1444 1441 1440 1440 1439 1438 1436 1435 1436 1436 1435 1434 1432 1431
1498 1498 1497 1494 1493 1492 1489 1486 1483 1480 1477 1473 1467 1466 1463 1460 1458 1455 1453 1450 1448 1445 1442 1440 1437 1435 1433 1432 1431 1431 1430 1428 1429 1430 1430 1429 1427 1425
1497 1497 1494 1490 1488 1486 1484 1481 1477 1474 1471 1468 1464 1460 1458 1456 1454 1450 1446 1444 1441 1439 1436 1434 1432 1430 1427 1426 1424 1425 1424 1422 1423 1424 1425 1425 1422 1421
1495 1494 1491 1486 1484 1481 1479 1475 1472 1469 1466 1463 1460 1457 1454 1451 1449 1446 1441 1438 1435 1434 1431 1428 1426 1424 1422 1421 1419 1418 1418 1417 1417 1419 1419 1420 1420 1418
1490 1489 1486 1483 1480 1477 1474 1471 1468 1465 1461 1459 1456 1453 1450 1447 1444 1441 1438 1434 1430 1428 1426 1422 1422 1419 1417 1416 1414 1412 1413 1414 1414 1415 1415 1415 1416 1415
1486 1484 1481 1479 1475 1473 1470 1468 1464 1460 1458 1455 1451 1449 1445 1443 1440 1436 1433 1430 1426 1423 1422 1416 1416 1413 1413 1412 1410 1410 1409 1410 1410 1411 1411 1412 1413 1412
1483 1480 1477 1475 1470 1468 1465 1461 1457 1454 1452 1451 1448 1444 1441 1439 1436 1433 1429 1425 1421 1419 1418 1413 1411 1408 1406 1405 1406 1405 1406 1406 1406 1407 1408 1409 1410 1411
1477 1475 1473 1470 1466 1464 1460 1456 1452 1449 1448 1446 1442 1439 1437 1434 1432 1428 1425 1422 1417 1415 1413 1410 1407 1404 1401 1399 1400 1400 1400 1400 1401 1402 1404 1405 1407 1409
1472 1470 1467 1465 1463 1460 1456 1452 1448 1446 1443 1439 1437 1434 1433 1430 1428 1426 1423 1419 1416 1411 1411 1408 1405 1404 1400 1398 1396 1395 1395 1396 1397 1397 1398 1402 1405 1407
1466 1466 1464 1460 1458 1456 1452 1449 1446 1442 1440 1437 1434 1432 1429 1427 1424 1422 1420 1417 1413 1409 1407 1406 1403 1402 1401 1397 1395 1392 1392 1392 1393 1393 1394 1397 1400 1404
1461 1460 1459 1456 1455 1452 1448 1446 1443 1441 1437 1435 1432 1430 1427 1424 1421 1419 1416 1413 1410 1406 1401 1401 1399 1399 1398 1396 1394 1391 1389 1391 1391 1391 1391 1393 1396 1401
1457 1455 1453 1452 1450 1447 1445 1443 1441 1439 1436 1433 1430 1427 1425 1422 1419 1416 1413 1410 1407 1400 1394 1396 1397 1396 1396 1395 1393 1391 1389 1390 1390 1390 1391 1391 1393 1396
1452 1450 1449 1448 1446 1445 1443 1441 1439 1437 1435 1431 1428 1425 1423 1420 1416 1414 1410 1407 1404 1401 1397 1396 1396 1394 1393 1393 1392 1391 1391 1390 1389 1389 1390 1391 1392 1393
1447 1446 1445 1444 1443 1442 1440 1439 1437 1435 1432 1429 1426 1423 1421 1418 1414 1412 1409 1406 1404 1402 1399 1397 1395 1392 1390 1390 1390 1390 1388 1387 1388 1388 1389 1390 1390 1392
1441 1440 1439 1439 1439 1438 1436 1435 1434 1432 1429 1427 1424 1422 1419 1417 1414 1411 1409 1406 1403 1401 1399 1397 1394 1392 1390 1389 1389 1389 1389 1385 1385 1389 1389 1389 1390 1391
1435 1434 1434 1434 1434 1434 1433 1432 1431 1429 1426 1424 1421 1419 1417 1415 1413 1411 1408 1405 1402 1400 1399 1397 1395 1392 1391 1389 1389 1389 1389 1388 1388 1388 1389 1389 1390 1391
1429 1428 1429 1429 1429 1429 1429 1428 1427 1425 1423 1421 1419 1417 1415 1413 1411 1410 1408 1405 1403 1400 1398 1397 1395 1393 1393 1392 1390 1390 1389 1389 1389 1389 1389 1390 1391 1391
1423 1422 1423 1424 1424 1424 1424 1423 1422 1421 1419 1418 1416 1414 1413 1411 1410 1409 1407 1405 1403 1400 1398 1395 1394 1393 1391 1391 1390 1390 1389 1389 1389 1389 1390 1390 1391 1391
1416 1416 1416 1417 1418 1418 1418 1418 1417 1416 1415 1414 1413 1412 1411 1409 1408 1407 1406 1404 1402 1400 1397 1395 1393 1392 1391 1390 1390 1389 1388 1389 1389 1389 1390 1390 1391 1392
1408 1409 1409 1410 1411 1412 1412 1412 1412 1411 1411 1411 1410 1409 1407 1407 1406 1405 1404 1403 1401 1399 1396 1394 1392 1392 1391 1390 1390 1389 1389 1389 1390 1390 1390 1390 1391 1391